User: anonymous   Login
Location: Ostrava
(49.8330°N, 18.2830°E)
Time: 01:54:18
(UTC+02:00)
Language:

Cosmos 2221 - Orbit

View from above orbital plane
View from above orbital plane
View from above satellite
View from above satellite

Ground track
Ground track

The orbit data is extracted from the following two-line orbital elements,

1 22236U 92080A   15089.53128574  .00001916  00000-0  21226-3 0  9995
2 22236 082.5060 103.4709 0017567 159.1754 201.0182 14.86724131206975
Epoch (UTC): 30 March 2015 12:45:03
Eccentricity: 0.0017567
inclination: 82.5060°
perigee height: 596 km
apogee height: 620 km
right ascension of ascending node: 103.4709°
argument of perigee: 159.1754°
revolutions per day: 14.86724131
mean anomaly at epoch: 201.0182°
orbit number at epoch: 20697

The dashed part of the orbit path shows where the satellite is in the earth's shadow,  

DLR